Location: Maccacari
(45.1333°N, 11.1333°E)
Time: 23:23:50
(UTC+00:00)

Tiros 1 despin weight - Pass Details

Date: 25 January 2021
Orbit: 593 x 642 km, 48.2° (Epoch: 07 March)

Event Time Altitude Azimuth Distance (km) Brightness Sun altitude
Rises 18:54:02 0° 289° (WNW) 2,851 ? -28.2°
Reaches altitude 10° 18:56:28 10° 281° (W) 1,939 ? -28.7°
Enters shadow 18:59:51 34° 236° (WSW) 984 ? -29.3°
Maximum altitude 19:00:32 36° 215° (SW) 939 - -29.4°
Drops below altitude 10° 19:04:34 10° 148° (SSE) 1,917 - -30.1°
Sets 19:06:58 0° 140° (SE) 2,814 - -30.5°
